Location: Unspecified
(29.9680°N, 0.0000°E)
Time: 18:07:49
(UTC+00:00)

A-11 Canister half - Pass Details

Date: 21 June 2019
Orbit: 1526 x 1683 km, 47.3° (Epoch: 19 August)

Event Time Altitude Azimuth Distance (km) Brightness Sun altitude
Rises 09:21:31 0° 308° (NW) 4,681 11.3 53.8°
Reaches altitude 10° 09:24:57 10° 317° (NW) 3,694 10.9 54.6°
Maximum altitude 09:33:20 36° 22° (NNE) 2,247 10.6 56.4°
Drops below altitude 10° 09:41:46 10° 86° (E) 3,731 11.7 58.2°
Sets 09:45:14 0° 95° (E) 4,733 12.0 58.9°
